Weather History for KAMW - December, 2011

Change the Weather History Date:

Saturday, December 10, 2011

  Actual Average Record
Temperature  
Mean Temperature 19 °F 24 °F  
Max Temperature 34 °F 33 °F 51 °F (2001)
Min Temperature 3 °F 16 °F 1 °F (2000)
Degree Days  
Heating Degree Days 46 41  
Month to date heating degree days 422 388  
Since 1 July heating degree days 1743 1842  
Cooling Degree Days 0 0  
Month to date cooling degree days 0 0  
Year to date cooling degree days 973 752  
Moisture  
Dew Point 17 °F    
Average Humidity 84    
Maximum Humidity 92    
Minimum Humidity 75    
Precipitation  
Precipitation 0.00 in 0.05 in 0.09 in (1985)
Month to date precipitation 1.04 0.52  
Year to date precipitation 30.30  
Sea Level Pressure  
Sea Level Pressure 30.40 in    
Wind  
Wind Speed 9 mph (SSW)    
Max Wind Speed 20 mph    
Max Gust Speed 23 mph    
Visibility 8 miles    
Events      
T = Trace of Precipitation, MM = Missing Value Source: NWS Daily Summary

Daily Weather History Graph

Daily Weather History Graph

Search for Another Location

Airport or City:

Trip Planner

Search our weather history database for the weather conditions in past years. The results will help you decide how hot, cold, wet, or windy it might be!

Date:

Astronomy

Dec. 10, 2011 Rise Set
Actual Time 7:31 AM CST 4:42 PM CST
Civil Twilight 6:59 AM CST 5:14 PM CST
Nautical Twilight 6:24 AM CST 5:49 PM CST
Astronomical Twilight 5:50 AM CST 6:23 PM CST
Moon 4:57 PM CST (12/10) 7:32 AM CST (12/10)
Length of Visible Light 10h 14m
Length of Day
9h 11m
Full, 100% of the Moon is Illuminated
Dec 10
Full
Dec 17
Last Quarter
Dec 24
New
Jan 1
First Quarter
Jan 9
Full

Hourly Weather History & Observations

Time (CST) Temp. Windchill Dew Point Humidity Pressure Visibility Wind Dir Wind Speed Gust Speed Precip Events Conditions
12:53 AM 5.0 °F -8.1 °F -0.0 °F 80% 30.53 in 10.0 mi WSW 8.1 mph - N/A   Clear
2:53 AM 5.0 °F -4.1 °F -0.0 °F 80% 30.51 in 10.0 mi WSW 4.6 mph - N/A   Clear
3:53 AM 5.0 °F -5.6 °F 1.0 °F 84% 30.50 in 10.0 mi SW 5.8 mph - N/A   Clear
4:53 AM 5.0 °F -6.9 °F 1.0 °F 84% 30.50 in 10.0 mi SSW 6.9 mph - N/A   Clear
5:53 AM 7.0 °F -4.5 °F 3.0 °F 84% 30.49 in 10.0 mi SSW 6.9 mph - N/A   Clear
6:53 AM 7.0 °F - 3.9 °F 87% 30.50 in 10.0 mi Calm Calm - N/A   Clear
7:53 AM 12.9 °F 2.6 °F 9.0 °F 84% 30.49 in 10.0 mi South 6.9 mph - N/A   Overcast
8:33 AM 15.8 °F 8.6 °F 10.4 °F 79% 30.43 in 9.0 mi SSE 4.6 mph - N/A   Overcast
8:53 AM 17.1 °F 7.6 °F 12.9 °F 84% 30.48 in 9.0 mi South 6.9 mph - N/A   Overcast
10:53 AM 24.1 °F 12.0 °F 19.0 °F 81% 30.44 in 7.0 mi South 13.8 mph 20.7 mph N/A   Partly Cloudy
11:53 AM 27.0 °F 15.2 °F 21.0 °F 78% 30.40 in 8.0 mi SSW 15.0 mph - N/A   Clear
12:15 PM 28.4 °F 16.2 °F 23.0 °F 80% 30.34 in 8.0 mi SSW 17.3 mph - N/A   Mostly Cloudy
12:29 PM 28.4 °F 17.5 °F 23.0 °F 80% 30.34 in 8.0 mi SW 13.8 mph - N/A   Overcast
12:53 PM 30.9 °F 20.7 °F 24.1 °F 76% 30.37 in 8.0 mi SSW 13.8 mph - N/A   Mostly Cloudy
1:07 PM 30.2 °F 19.3 °F 24.8 °F 80% 30.32 in 8.0 mi SSW 15.0 mph - N/A   Scattered Clouds
1:53 PM 34.0 °F 25.0 °F 27.0 °F 75% 30.35 in 8.0 mi SSW 12.7 mph - N/A   Clear
4:53 PM 32.0 °F 24.8 °F 27.0 °F 82% 30.35 in 6.0 mi South 8.1 mph - N/A   Haze
6:53 PM 27.0 °F 20.5 °F 25.0 °F 92% 30.35 in 6.0 mi South 5.8 mph - N/A   Clear
7:53 PM 28.9 °F 22.8 °F 27.0 °F 92% 30.33 in 6.0 mi South 5.8 mph - N/A   Clear
8:53 PM 28.9 °F 21.1 °F 27.0 °F 92% 30.31 in 5.0 mi South 8.1 mph - N/A   Clear
9:53 PM 30.0 °F 24.1 °F 27.0 °F 88% 30.30 in 7.0 mi SSW 5.8 mph - N/A   Clear
10:53 PM 30.0 °F 20.5 °F 27.0 °F 88% 30.29 in 7.0 mi SSW 11.5 mph - N/A   Clear
11:53 PM 28.9 °F 19.8 °F 26.1 °F 89% 30.29 in 7.0 mi SSW 10.4 mph - N/A   Clear